Location: Villa Martelli
(34.5514°S, 58.5058°W)
Time: 06:11:53
(UTC-03:00)

Tiangong 1 - Pass Details

Date: 31 March 2018
Orbit: 144 x 152 km, 42.7° (Epoch: 01 April)

Event Time Altitude Azimuth Distance (km) Brightness Sun altitude
Rises 22:15:03 0° 240° (WSW) 1,476 - -41.8°
Reaches altitude 10° 22:16:46 10° 236° (SW) 731 - -42.1°
Maximum altitude 22:18:22 63° 153° (SSE) 186 - -42.4°
Drops below altitude 10° 22:19:57 10° 69° (ENE) 721 - -42.6°
Sets 22:21:38 0° 66° (ENE) 1,450 - -42.9°
